Wind_Speed
21 21 20 20 20 20 21 21 22 23 24 25 26 27 28 29 30 31 32 33 34 35 36 36 37 39 40 41 42 43 44 44 45 46 46 47 48 48 49 49 50 50 50 51 51 51 52 53 54 55 56 58 59 58 57 57 57 57 57 57 56 56 55 53 52 51 50 47 45 45 44 43 44 46 47 46 46 47 46 45 45 44 44 44 42
23 23 23 23 23 23 23 24 24 25 26 27 28 29 31 32 33 34 35 36 37 38 39 40 41 42 42 44 45 45 46 47 48 48 49 50 51 51 52 52 53 54 54 54 54 54 54 55 55 55 55 57 58 60 60 60 60 60 60 60 60 59 58 57 56 55 54 51 50 49 49 47 45 45 46 46 47 48 48 47 47 46 46 47 46
26 26 26 26 26 27 27 27 27 28 29 30 31 33 34 35 36 37 38 39 40 41 42 42 43 44 44 45 46 47 48 49 50 51 52 53 53 54 55 56 56 57 58 58 58 58 59 59 59 58 58 58 59 60 61 62 62 62 63 63 63 63 62 62 61 60 59 56 54 53 53 52 50 48 46 46 46 48 50 50 49 47 47 49 50
29 29 29 29 30 30 30 30 31 31 32 33 35 36 37 38 38 40 41 42 42 43 43 44 45 46 47 48 49 50 51 52 53 54 55 55 56 57 58 58 59 60 61 62 62 62 62 63 63 63 62 61 62 62 62 64 64 64 64 65 66 66 66 65 65 65 64 62 59 58 57 56 54 52 50 47 46 46 49 51 51 49 48 50 52
31 32 32 32 32 32 33 33 34 34 35 36 38 39 40 41 42 43 44 44 44 44 45 46 47 49 50 51 52 52 53 53 54 55 56 56 57 58 59 60 61 62 63 64 64 64 65 65 66 66 65 65 64 64 64 65 66 67 66 66 67 68 68 69 69 69 68 67 65 62 61 60 58 56 54 52 49 47 48 50 53 52 49 50 52
34 35 34 34 35 35 36 37 37 38 39 40 41 42 43 43 43 44 45 45 46 46 47 49 50 51 52 53 53 54 54 54 54 55 56 56 57 58 59 60 61 62 62 63 64 65 66 66 67 68 68 67 67 66 66 66 67 68 69 68 67 68 69 71 72 73 72 71 69 67 65 63 62 61 58 56 53 50 49 50 52 54 51 49 52
37 37 38 38 39 39 40 40 41 42 43 44 44 44 44 44 45 45 46 47 48 49 50 51 52 53 54 54 54 54 55 54 55 55 55 56 56 57 58 58 59 60 61 62 63 64 65 66 67 67 68 68 68 68 68 68 68 69 70 71 70 69 69 71 73 76 76 75 73 72 70 67 66 65 63 60 58 56 54 51 51 52 52 50 50
38 39 40 41 42 42 43 44 45 45 46 46 47 47 47 47 47 48 49 49 50 51 51 52 53 54 54 54 54 54 54 55 55 55 55 54 54 55 55 56 56 57 58 59 60 61 63 64 65 66 67 68 68 69 69 69 70 70 71 72 73 73 72 72 73 76 78 79 78 76 74 73 70 69 68 65 63 62 59 55 52 52 53 52 49
41 41 42 43 44 45 46 47 47 48 48 48 48 48 49 49 50 50 50 50 51 51 52 52 53 54 55 55 55 55 55 56 55 55 54 54 54 55 55 54 54 54 55 56 56 57 59 60 61 63 65 66 68 69 70 70 71 72 73 74 75 76 76 75 75 75 77 81 82 81 79 77 76 74 72 70 68 65 62 59 57 55 53 52 52
43 43 44 45 45 46 47 47 48 48 48 48 49 49 49 50 50 50 50 50 51 51 52 53 54 55 56 57 57 57 57 57 56 56 55 54 54 55 55 55 55 55 55 56 56 57 57 57 58 59 60 62 64 67 69 70 71 73 74 75 76 78 78 79 79 78 78 80 83 85 83 81 80 79 76 74 71 69 65 62 61 59 54 53 55
42 42 43 44 44 45 45 45 46 46 47 47 47 47 48 48 48 49 50 51 51 53 54 55 56 57 58 59 59 59 58 57 57 56 55 55 55 55 55 56 56 56 57 58 59 59 59 59 58 58 58 59 61 62 65 68 70 72 74 75 77 78 79 80 81 82 82 82 82 85 86 86 85 83 81 78 75 72 69 65 64 62 58 56 57
40 41 41 42 42 43 43 43 43 43 44 44 45 45 46 46 47 49 50 52 53 55 56 57 58 59 60 60 61 60 59 58 58 57 57 57 56 56 56 56 57 57 58 59 60 60 60 60 60 60 60 60 60 61 62 64 66 68 71 73 75 77 79 81 82 83 84 85 84 84 87 90 90 87 85 83 80 76 73 69 67 65 62 59 59
39 40 41 41 42 42 41 41 42 42 42 43 43 44 45 47 48 50 52 54 55 57 58 59 60 60 61 61 62 62 61 61 59 58 58 58 57 57 58 58 58 58 59 60 60 60 61 61 61 61 61 61 61 61 62 63 64 65 67 69 71 75 77 79 81 83 85 86 86 86 87 90 93 92 90 87 84 81 77 74 71 69 66 63 61
39 39 40 40 40 40 40 40 41 41 42 43 44 46 47 49 51 53 54 56 58 59 60 61 61 62 62 62 63 64 63 62 61 60 59 59 58 58 59 59 59 59 60 61 61 61 61 61 62 62 63 62 62 62 62 62 63 64 65 66 68 71 73 75 77 80 83 84 86 87 88 89 93 95 94 90 88 86 83 79 76 73 70 68 66
38 38 38 39 39 39 40 41 42 43 44 46 47 48 50 51 53 55 56 58 59 61 61 62 63 63 64 64 64 64 64 63 62 62 61 60 60 59 60 60 61 61 61 62 62 61 61 61 62 62 63 62 62 62 62 62 63 64 64 66 68 69 70 72 74 76 79 81 83 86 88 88 91 95 97 95 92 91 88 84 81 78 75 73 70
38 38 39 40 41 41 42 43 44 46 47 48 49 50 52 53 55 57 58 60 61 62 62 63 64 64 65 65 65 65 66 65 64 64 63 62 61 61 61 61 62 62 61 62 61 61 60 60 61 61 61 61 61 61 61 61 62 63 64 65 67 68 69 71 72 73 76 78 80 83 86 88 89 92 97 98 97 95 92 89 86 84 80 77 75
39 40 41 42 43 44 45 46 47 48 48 50 51 52 54 56 57 58 59 60 61 62 62 63 64 65 66 66 66 66 67 67 66 64 63 62 62 62 62 61 61 60 60 60 59 59 58 59 59 59 59 59 59 59 59 59 60 61 63 65 66 67 69 70 71 73 75 76 77 80 83 87 89 90 94 98 100 99 96 93 91 89 85 81 78
41 42 44 45 46 46 46 47 48 49 50 51 53 54 56 58 59 59 60 60 61 63 63 64 66 67 67 67 67 67 67 67 66 64 63 62 61 61 61 60 59 58 57 57 57 56 56 56 57 57 57 57 58 57 57 58 59 60 61 63 64 66 68 70 71 73 75 75 76 78 81 84 87 89 91 95 99 101 100 97 95 93 90 85 83
43 44 45 46 46 47 47 48 50 51 52 54 55 57 58 59 59 60 61 62 63 64 65 66 68 69 69 69 68 67 67 67 66 64 63 61 60 59 59 57 56 55 55 55 55 55 55 55 56 56 55 56 57 57 57 57 58 59 60 61 63 65 68 70 70 72 74 75 75 77 79 81 85 88 89 91 95 100 102 102 99 96 93 89 87
44 45 46 46 47 48 49 50 51 52 54 56 57 58 59 60 60 61 62 64 65 66 67 68 69 71 71 70 70 69 67 66 66 64 62 60 57 56 55 55 54 54 54 54 54 54 55 55 55 55 55 56 56 57 57 57 58 59 60 61 62 65 67 69 70 71 72 74 75 76 78 79 82 85 88 89 91 95 100 103 102 100 97 94 91
45 46 47 47 48 49 50 51 52 54 55 57 58 59 60 61 62 63 64 66 67 69 70 70 71 72 72 72 70 68 66 65 64 63 60 57 55 53 53 54 53 53 53 54 53 54 54 55 55 55 55 56 57 57 57 57 57 58 60 61 63 65 67 67 69 70 71 72 74 75 77 79 80 82 85 87 89 91 95 99 102 102 101 98 95
47 47 48 49 49 50 51 52 54 56 57 58 59 60 61 62 63 64 66 67 69 70 71 71 71 71 70 69 67 65 64 62 61 59 58 56 54 53 53 53 53 52 53 54 54 55 56 56 57 57 56 57 57 57 57 57 57 57 59 61 63 64 65 66 67 69 71 72 73 74 76 78 80 81 83 85 87 89 91 94 97 100 103 103 100
48 49 49 50 51 52 53 54 56 57 58 59 60 61 62 63 65 66 67 68 69 70 70 70 69 68 67 65 64 63 61 59 58 57 56 55 54 54 53 54 54 54 54 55 57 58 58 58 59 59 58 58 58 58 58 58 58 59 60 61 63 64 64 64 65 68 70 71 72 73 75 76 79 80 81 83 85 87 88 90 92 96 101 105 105
50 50 50 51 52 54 55 56 57 58 59 59 60 62 63 65 66 67 68 68 68 68 68 67 66 64 63 63 62 60 59 58 57 56 56 55 55 55 55 56 56 56 57 58 59 60 60 60 60 59 58 58 58 59 59 59 60 61 62 63 63 64 64 64 65 67 69 70 71 71 73 75 77 79 80 81 82 83 85 87 89 92 97 102 106
50 51 52 53 54 55 56 57 57 58 59 61 62 63 64 65 67 68 68 68 67 66 65 64 63 61 60 60 60 60 59 58 57 57 57 56 56 56 57 57 57 57 58 59 60 61 61 60 58 58 58 57 57 58 58 59 59 60 62 63 64 64 65 65 66 67 68 68 69 70 72 74 76 78 79 79 79 80 81 84 86 89 92 96 101
51 52 53 54 55 56 56 57 58 59 61 62 63 63 64 65 67 67 67 66 65 63 62 60 59 59 59 59 60 60 60 59 58 58 58 58 57 57 57 58 57 57 57 57 58 58 58 57 56 55 54 54 54 55 56 57 57 58 59 61 61 63 65 66 67 67 67 68 68 70 72 74 75 75 76 77 77 77 78 81 83 85 88 91 95
52 53 54 55 55 55 56 58 59 61 62 63 64 64 65 66 66 65 64 62 61 60 59 58 57 57 58 59 60 61 62 61 59 58 58 57 57 56 55 55 55 54 53 53 53 53 53 53 51 49 49 49 50 51 52 53 54 54 55 57 58 59 62 64 66 67 67 68 69 69 71 72 72 73 73 74 74 74 76 77 79 81 84 87 90
53 54 54 55 55 55 57 59 61 62 63 64 65 65 65 65 64 62 60 57 56 56 56 57 57 57 58 59 60 61 62 61 59 57 55 54 53 52 51 50 49 49 48 47 47 47 46 45 44 44 44 44 45 46 47 48 48 49 51 52 54 56 59 61 63 65 66 68 69 69 70 70 70 70 70 71 71 72 73 74 74 77 80 83 85
54 54 55 55 55 57 59 61 62 63 64 65 66 65 64 62 60 59 56 53 52 53 54 56 57 57 58 59 59 60 61 60 58 54 51 49 48 47 46 44 43 42 42 41 41 41 39 37 38 39 39 40 41 41 41 42 43 44 45 47 50 53 55 58 60 62 65 67 68 69 68 68 67 67 67 67 68 69 70 70 71 72 75 78 80
54 54 54 55 56 59 61 62 62 63 64 65 65 64 62 58 55 54 54 53 52 52 52 54 55 56 58 59 59 58 57 56 53 50 46 44 42 41 40 38 36 36 35 35 35 34 33 33 34 35 36 37 38 38 38 37 38 39 41 42 45 48 51 54 56 58 62 64 66 66 66 65 64 64 64 64 66 67 67 67 68 69 70 73 76
54 54 54 56 59 61 62 62 63 64 63 63 62 60 58 56 53 52 53 54 54 53 53 53 54 55 55 56 56 54 52 50 47 44 42 40 38 36 34 32 30 29 29 30 29 29 29 31 31 32 33 35 36 36 35 35 35 35 36 37 40 43 47 50 52 53 56 60 62 63 64 63 62 62 62 62 63 64 64 64 65 66 67 69 72
54 55 56 58 60 61 62 62 63 62 61 60 57 55 54 54 54 54 54 54 54 54 55 55 55 54 53 51 50 48 47 46 43 40 37 35 33 30 28 26 25 25 25 25 26 26 27 29 30 30 32 33 33 33 33 32 31 31 32 33 35 39 42 45 47 49 52 56 59 60 61 60 60 59 60 60 60 61 61 62 63 64 65 65 68
55 56 58 59 60 61 62 62 61 60 57 55 53 52 52 52 54 55 55 55 55 55 55 55 53 51 49 46 44 43 42 42 40 36 33 30 27 25 23 22 22 22 22 23 24 25 26 28 29 29 30 30 30 30 29 29 28 27 27 28 30 33 37 39 42 45 48 52 55 57 57 57 57 57 57 57 57 58 58 59 60 62 63 63 65
57 58 58 59 60 61 61 60 58 55 53 52 51 51 51 52 53 54 55 56 56 56 55 53 50 47 44 42 40 38 38 37 36 33 29 25 23 21 19 18 18 20 21 22 23 24 26 27 28 29 29 28 27 27 26 25 24 23 22 23 25 27 30 33 36 39 43 46 50 52 54 54 53 53 54 54 54 55 56 56 58 59 60 61 62
57 57 58 58 59 59 58 56 53 51 50 50 50 51 51 52 53 53 54 55 55 55 53 50 47 43 40 38 36 34 33 33 31 28 24 21 19 18 17 16 16 18 20 21 23 24 26 27 28 28 27 25 24 24 23 22 20 19 18 18 18 20 23 27 30 34 38 42 46 49 50 50 49 49 50 51 51 52 53 54 55 56 57 58 59
56 56 57 57 57 56 53 51 49 49 49 50 50 51 51 52 52 53 53 53 51 50 49 46 44 41 38 35 32 30 30 30 27 23 19 17 17 16 15 14 15 17 19 21 23 24 26 26 27 26 25 23 22 21 20 19 17 16 15 14 13 14 18 23 27 32 36 39 42 45 47 47 47 47 48 49 49 50 51 51 52 54 55 55 55
55 55 55 54 53 51 49 47 47 48 48 49 50 50 51 52 52 52 52 50 48 46 44 42 41 40 37 33 29 26 26 26 23 19 16 15 15 14 13 14 15 16 18 21 23 24 25 26 25 23 21 20 20 19 17 16 14 13 13 11 9 9 13 17 22 28 32 35 37 40 42 42 43 45 46 46 46 47 48 48 50 51 52 53 53
53 53 52 50 48 46 46 46 46 47 48 48 49 50 51 51 51 50 49 47 44 42 40 39 38 37 35 32 27 24 22 21 18 15 13 13 13 13 12 13 15 16 19 22 23 23 24 24 23 20 18 18 18 16 14 12 10 8 7 5 4 7 10 15 19 23 27 30 32 35 37 38 39 41 42 43 44 45 45 46 47 48 49 50 51
50 49 47 46 45 44 44 45 46 47 47 48 49 50 50 50 49 48 46 43 41 39 38 37 35 34 32 29 24 20 18 15 13 12 12 12 11 11 11 12 14 16 19 22 22 22 23 22 19 16 15 15 14 12 10 9 8 6 6 4 1 3 7 13 18 20 24 28 30 32 34 35 36 37 39 40 42 43 44 44 45 46 47 48 49
46 45 44 43 43 43 44 45 46 47 48 49 49 50 49 49 47 45 42 40 38 37 36 34 33 31 28 24 20 16 13 11 10 11 12 11 11 10 11 13 15 17 20 22 22 21 20 18 14 12 12 12 11 9 9 9 8 7 7 5 2 1 5 11 17 20 24 27 29 29 29 30 31 34 36 37 38 39 40 41 41 43 45 46 46
43 42 42 42 42 42 43 44 45 47 48 48 49 49 48 46 44 41 39 37 36 35 34 32 30 28 24 19 15 12 11 10 10 11 11 11 10 10 12 14 17 19 21 22 21 19 16 12 8 9 11 13 13 12 13 13 11 10 10 9 8 6 6 11 17 20 23 25 26 27 27 27 27 30 32 33 33 34 36 37 38 40 42 43 45
40 40 40 41 41 42 43 44 45 46 47 47 47 47 46 44 41 38 36 35 35 33 31 28 26 23 18 14 12 10 11 11 11 11 10 9 9 11 14 17 19 21 22 21 19 15 11 6 7 9 11 12 12 13 15 16 15 14 14 14 11 7 8 13 18 20 20 21 22 24 24 22 23 25 28 28 28 30 32 35 36 38 39 41 43
39 39 40 40 41 42 43 44 45 46 46 46 46 45 44 41 38 36 34 33 32 30 27 24 20 17 13 11 10 11 11 11 11 10 8 8 11 14 16 19 21 23 23 19 15 9 4 6 11 13 14 14 14 14 16 18 17 16 14 11 7 6 10 13 15 16 17 16 18 21 23 22 20 23 26 28 28 29 31 34 36 38 39 40 41
38 38 39 39 40 42 43 44 45 45 45 45 45 43 41 39 36 33 32 31 29 26 23 18 15 12 10 9 10 11 11 10 10 9 9 11 13 16 18 21 23 22 19 14 8 3 8 13 16 17 17 16 16 16 17 17 16 13 12 11 8 6 8 11 12 11 11 12 14 18 21 20 19 22 26 28 29 29 31 32 34 36 38 39 40
37 37 38 39 40 42 43 43 44 44 44 44 43 41 39 36 33 31 30 28 25 21 17 13 10 8 8 9 10 10 9 9 9 10 12 14 17 18 20 20 18 15 10 6 5 11 15 17 17 16 15 14 14 15 15 14 12 11 11 12 11 9 7 9 12 12 10 11 14 15 17 18 19 22 25 27 27 28 28 29 31 34 35 37 38
36 37 38 39 40 41 42 43 43 44 43 42 41 39 37 34 31 29 28 25 22 17 13 9 6 6 7 8 9 9 9 10 10 12 14 16 16 16 16 15 12 8 6 8 14 19 19 17 15 13 12 12 12 12 12 11 9 8 6 6 7 7 6 8 11 12 12 14 16 17 18 18 18 20 23 24 24 26 27 28 30 31 33 35 37
35 36 37 39 40 40 41 42 43 43 42 41 39 37 35 32 29 27 25 22 18 14 9 5 3 4 6 7 8 9 10 10 11 12 14 16 17 17 16 14 12 9 12 17 21 21 17 14 11 11 12 12 12 12 13 13 11 9 5 2 2 4 5 7 9 11 15 18 18 17 18 18 18 19 20 21 22 24 26 27 28 29 30 31 33
35 36 37 38 39 40 41 41 42 41 40 39 37 35 32 29 27 25 23 19 15 10 5 2 1 3 3 6 9 10 9 9 10 13 17 20 21 20 18 16 14 15 19 22 20 17 13 11 12 14 14 14 12 12 13 14 14 14 11 8 4 3 3 5 7 11 16 19 20 18 18 18 18 19 19 20 21 22 23 24 25 25 26 28 30
35 36 37 37 38 39 40 41 40 40 38 37 35 33 30 27 25 23 21 17 12 7 2 1 0 1 3 8 10 9 7 8 12 15 17 19 21 22 20 19 19 20 21 20 17 14 12 13 13 13 12 11 9 9 11 16 20 21 20 17 13 9 8 7 5 7 12 16 18 18 17 15 15 17 19 20 20 21 21 22 22 22 23 24 24
34 35 36 37 38 39 40 40 39 39 37 35 33 31 28 24 23 21 18 14 10 5 1 3 2 2 5 9 10 8 7 10 13 15 16 18 20 20 19 19 20 19 18 17 15 13 13 12 11 9 8 7 7 9 14 20 23 23 22 22 20 15 14 13 11 7 7 10 13 14 14 13 12 15 18 20 21 21 21 21 21 21 23 23 22
33 34 35 36 37 38 39 39 38 37 36 34 32 29 26 23 21 19 16 12 8 3 3 4 4 5 8 10 9 8 9 12 14 14 15 17 18 17 16 16 16 14 13 12 12 12 13 14 13 12 12 13 14 16 20 23 24 21 19 18 19 18 18 19 17 15 11 8 8 9 10 12 15 18 19 21 23 24 24 24 24 24 24 24 23
Wind_Direction
272 271 270 269 268 266 265 264 263 263 263 263 264 266 268 271 272 273 273 274 274 274 274 274 274 275 275 276 276 275 275 274 273 272 272 271 270 269 268 267 266 265 264 263 262 261 260 259 258 257 255 255 255 253 251 248 246 246 245 244 242 240 238 237 239 239 239 240 240 239 237 237 240 240 238 238 237 236 236 236 235 235 235 235 234
274 275 275 276 276 277 276 275 273 271 271 271 272 274 277 278 278 278 277 277 277 277 276 276 276 276 276 276 276 276 275 274 273 272 272 271 270 269 269 268 267 266 264 263 262 261 260 259 258 257 256 255 254 254 252 249 246 244 244 244 243 242 240 238 236 237 237 237 237 238 238 238 239 241 240 239 238 237 236 236 236 236 236 235 235
275 276 276 277 278 279 279 279 278 276 276 275 276 278 279 280 280 280 280 280 280 279 279 279 278 278 278 277 277 276 275 273 272 271 270 270 270 269 268 267 267 266 265 263 262 261 260 259 258 257 256 256 255 254 253 251 248 245 242 242 242 242 241 240 238 236 235 235 234 235 237 239 238 238 239 239 239 238 236 236 237 237 238 237 236
276 277 277 278 279 279 280 280 279 278 278 278 279 280 281 282 282 282 282 282 282 282 281 281 280 280 280 280 279 278 277 275 274 273 271 270 270 269 268 267 266 265 264 263 262 261 260 259 258 257 256 255 254 254 253 252 250 248 244 241 240 240 240 240 239 238 237 236 234 233 235 238 238 237 237 237 238 237 236 236 236 237 239 238 236
276 278 278 278 279 279 280 280 280 280 280 280 281 282 283 283 283 283 283 283 283 283 283 282 282 282 282 282 282 281 279 278 276 275 274 273 271 270 268 267 266 265 264 263 262 261 260 259 258 257 256 255 254 253 252 251 250 249 246 243 240 239 238 238 238 238 239 238 236 235 234 236 237 236 235 236 237 236 235 236 235 236 240 241 237
276 277 278 278 278 279 279 280 281 281 282 283 284 284 284 284 284 283 284 284 284 284 284 285 285 284 284 284 283 283 281 280 279 278 276 275 273 272 270 268 266 265 264 263 262 261 260 259 258 257 256 255 253 252 251 250 248 247 246 245 242 240 238 237 236 236 237 238 238 237 235 235 236 237 236 235 235 235 235 234 235 236 239 242 241
276 276 277 278 278 279 280 282 283 284 285 286 286 286 285 285 285 285 285 286 286 286 286 286 285 285 285 285 285 285 284 283 282 281 280 278 276 274 272 271 269 267 265 264 262 261 260 259 258 257 256 255 253 252 250 249 248 246 245 244 243 242 240 238 236 235 236 237 237 238 236 235 235 236 237 236 234 234 234 233 234 235 237 239 242
273 274 276 277 279 280 282 283 284 285 286 287 286 285 285 286 286 286 286 286 286 285 285 284 285 285 286 286 287 287 287 286 285 284 282 281 279 278 275 274 272 270 268 266 264 262 261 259 258 257 256 255 254 252 250 248 247 246 245 244 243 243 242 241 239 236 235 235 236 237 237 236 235 235 236 236 235 234 234 233 233 234 235 236 239
273 274 276 277 279 280 282 283 284 285 286 285 285 285 285 285 286 285 285 284 284 284 284 285 286 287 287 288 288 288 288 287 286 285 283 282 281 280 278 277 275 273 271 270 268 266 263 261 259 258 256 255 254 253 251 249 247 246 245 244 243 243 243 243 242 239 237 235 234 235 235 236 235 235 235 235 236 236 235 233 232 233 234 235 236
275 276 277 279 280 281 282 283 284 284 284 284 284 284 285 285 285 284 284 284 284 285 286 286 287 287 287 287 288 288 288 287 286 285 283 282 281 280 278 277 276 275 274 273 271 269 267 265 262 260 257 255 254 252 252 250 249 247 246 244 244 243 243 243 242 242 240 237 235 233 233 234 235 235 234 233 234 236 236 234 233 232 232 233 234
276 277 279 280 282 283 283 283 283 283 283 283 284 284 284 284 284 285 285 286 287 287 287 287 287 287 287 288 288 288 288 288 287 286 285 284 282 281 278 277 276 275 274 273 272 271 269 267 265 262 260 258 255 253 252 251 250 249 247 246 245 244 243 243 242 242 241 240 238 234 232 233 233 234 233 232 232 233 235 235 235 233 232 232 234
278 280 281 283 284 284 284 283 283 282 282 283 284 284 285 285 286 287 288 288 288 288 287 287 287 287 288 289 289 290 290 289 289 288 287 286 284 283 280 278 276 276 275 274 273 271 270 268 266 264 262 260 258 255 253 252 250 249 248 247 246 245 244 243 243 242 242 241 240 237 234 232 232 232 232 232 230 230 232 233 234 234 234 232 232
282 283 284 285 284 284 283 282 282 282 283 284 285 286 287 288 289 289 289 289 288 288 288 288 288 289 289 290 290 290 290 290 289 288 287 286 284 283 281 280 278 277 276 275 273 272 270 269 267 265 263 261 259 257 255 253 252 250 249 248 247 246 244 243 242 242 242 241 240 239 236 233 231 231 231 230 230 228 229 230 232 233 234 233 232
286 286 286 286 285 285 284 283 284 285 287 288 289 289 290 290 290 290 290 290 289 289 289 289 290 290 290 290 290 290 290 290 289 288 287 286 285 284 282 281 280 278 277 276 274 272 270 269 267 266 264 262 260 258 256 254 253 251 250 249 247 246 245 243 242 241 241 240 240 239 237 234 232 230 229 229 229 228 227 227 229 230 233 234 233
289 289 290 290 289 288 288 289 290 291 292 292 292 291 291 291 291 291 290 290 290 290 291 291 291 291 291 291 291 290 290 290 290 290 289 288 287 285 284 282 281 279 278 276 274 273 271 269 268 266 265 263 261 259 257 255 253 252 250 249 248 246 245 244 243 241 240 240 239 239 238 236 233 231 229 228 228 228 226 226 226 228 230 232 233
291 293 294 294 293 291 292 293 294 295 294 294 293 293 292 292 292 292 292 292 292 292 292 291 291 291 291 292 292 291 291 291 291 290 289 288 287 286 284 283 282 280 278 276 275 273 272 270 268 267 265 263 262 260 258 256 254 252 251 249 248 247 245 244 243 242 241 239 239 238 238 237 234 232 230 228 227 227 226 225 225 226 227 229 232
294 295 294 294 293 293 294 295 296 296 295 295 294 294 293 293 293 293 294 294 294 293 292 292 292 292 292 292 292 292 292 292 292 291 290 288 287 286 284 283 281 279 278 277 275 274 272 270 269 267 266 264 262 260 258 256 254 252 251 249 248 247 246 244 243 242 241 240 239 238 238 237 235 233 231 228 227 227 226 225 225 225 226 226 229
294 294 294 293 293 294 295 295 296 296 296 295 294 294 294 294 295 296 296 295 294 294 293 293 292 292 292 292 293 293 293 292 292 291 290 289 287 286 285 283 281 279 278 276 275 273 272 270 269 267 265 264 263 260 258 256 254 252 250 248 247 246 245 244 242 241 241 240 240 239 238 237 236 235 232 230 228 227 227 226 225 225 225 225 226
293 293 293 294 294 295 296 296 296 297 296 295 295 295 295 295 296 296 295 295 294 294 293 293 292 293 293 293 293 294 293 293 292 291 290 288 287 286 284 283 281 280 278 276 275 274 272 270 268 267 265 264 262 261 258 256 254 253 250 248 247 245 244 243 242 240 240 240 239 239 239 238 237 236 234 232 229 228 227 226 226 225 225 224 225
294 294 295 295 295 296 296 297 297 296 295 295 295 295 295 295 295 295 295 295 294 293 293 293 293 294 294 294 294 294 293 293 292 291 290 288 287 285 284 282 281 280 278 277 275 274 273 271 269 267 266 264 262 261 259 256 254 253 251 249 247 245 244 243 242 241 240 239 239 239 239 238 237 236 235 233 231 229 228 227 226 225 224 224 224
294 295 295 296 296 296 297 297 296 295 295 295 295 295 295 295 295 295 295 295 294 294 295 295 295 295 295 294 294 294 293 292 291 290 289 288 287 285 284 283 281 280 279 278 277 275 273 272 270 268 266 265 263 261 260 257 255 254 252 250 248 247 245 244 243 242 241 240 239 238 238 238 238 237 235 234 233 231 229 228 227 225 224 224 223
295 295 296 296 296 297 297 296 295 295 295 296 296 296 296 295 295 295 295 295 295 295 296 296 296 296 295 295 294 293 292 291 291 290 290 289 288 287 286 284 283 282 281 279 278 276 274 272 271 269 267 265 264 263 261 260 257 255 253 251 250 249 247 245 243 243 242 241 239 238 238 238 238 237 236 234 233 232 230 229 227 226 224 225 224
295 296 296 297 297 297 296 296 296 297 297 297 297 297 296 295 295 295 295 295 295 295 296 296 296 296 296 295 294 293 292 292 292 291 291 291 290 289 288 287 285 284 282 280 278 277 275 273 271 270 269 268 267 265 263 261 259 256 253 252 250 249 247 246 244 243 242 241 240 238 237 237 237 237 237 235 234 232 231 230 229 227 225 225 225
296 297 298 298 298 297 297 297 298 298 298 298 297 296 296 296 295 295 295 296 296 296 296 296 296 296 296 295 294 294 294 294 293 293 293 292 292 291 290 288 286 285 283 281 279 277 275 274 274 273 272 270 268 266 264 262 260 257 255 252 250 248 247 245 243 242 241 240 239 238 238 237 236 236 236 236 234 233 232 230 229 228 226 225 225
298 299 299 299 299 298 298 298 298 299 298 298 297 297 296 296 296 296 297 297 298 298 298 297 297 297 297 297 296 296 296 296 295 295 295 294 293 292 290 288 286 284 283 281 279 278 278 277 276 275 274 272 271 269 267 264 261 259 256 254 251 249 246 244 242 241 240 239 239 238 237 236 236 235 235 235 235 233 232 231 229 229 227 226 225
300 300 300 299 298 298 299 299 299 299 298 298 298 297 297 297 297 298 299 300 300 299 299 299 299 299 299 298 298 297 297 296 296 296 296 295 294 293 290 288 286 284 282 280 279 279 279 278 277 276 275 275 273 270 268 266 263 261 258 255 253 250 247 245 242 240 239 238 237 237 236 236 235 235 235 235 234 233 232 231 229 229 228 227 226
300 299 299 298 298 299 300 300 300 299 299 299 299 299 299 299 300 300 301 301 301 301 300 300 300 300 299 299 298 298 297 297 298 298 297 296 294 292 289 287 285 283 282 280 279 278 278 278 279 278 276 274 272 270 268 267 265 263 261 258 255 252 249 246 243 240 238 237 237 236 235 235 235 235 234 234 234 233 233 231 230 229 228 227 226
299 298 298 298 300 300 300 300 300 300 300 301 301 301 302 302 302 302 302 302 302 302 302 302 301 300 299 298 298 298 298 299 299 299 298 296 293 291 288 287 285 284 283 281 279 278 279 280 280 279 276 275 273 271 270 269 267 264 262 259 257 254 250 246 243 240 237 236 235 235 235 234 234 234 234 234 233 233 233 232 230 229 228 228 227
298 298 298 300 300 301 301 301 301 302 302 303 304 304 304 304 303 303 303 303 303 303 302 302 301 301 300 300 300 299 300 300 300 299 298 295 292 290 289 287 286 284 283 282 282 282 284 284 283 283 282 281 278 276 274 272 270 266 262 259 256 253 251 248 243 239 236 234 233 234 234 234 234 234 233 233 233 233 232 232 231 229 228 227 227
298 299 300 301 301 302 303 303 303 303 304 305 305 305 305 305 305 305 305 305 304 303 302 301 301 302 302 302 301 301 301 300 300 299 298 295 293 292 291 289 288 286 285 285 286 289 291 291 290 290 289 287 285 282 280 276 273 269 265 260 256 253 250 248 244 240 236 233 232 232 233 233 233 233 233 232 232 232 232 231 231 230 228 227 227
300 301 301 302 303 303 303 303 304 305 306 306 306 306 306 307 307 307 306 306 306 305 304 304 304 304 304 303 303 302 301 300 300 300 300 298 297 295 294 293 291 289 289 291 294 296 298 297 297 296 294 292 290 288 285 281 277 273 268 263 257 253 249 246 244 240 235 232 230 229 231 232 231 231 231 231 231 232 231 230 230 230 229 227 226
302 302 303 303 303 303 304 304 305 306 307 307 307 307 308 309 309 309 308 307 307 308 308 308 308 307 306 305 304 304 303 303 303 304 303 302 300 299 297 296 294 294 295 297 299 301 302 302 301 300 298 297 295 293 290 287 282 278 273 266 260 255 250 246 243 239 234 230 227 226 227 229 229 229 230 230 230 231 230 229 229 229 229 227 226
303 304 304 303 304 304 305 306 307 307 308 308 308 309 310 310 309 309 309 309 310 310 310 310 309 309 309 308 307 307 307 306 306 308 307 304 302 301 299 299 298 298 300 302 305 307 308 308 307 306 304 302 301 299 296 294 290 285 279 271 264 257 252 247 242 238 233 228 224 223 223 225 227 228 228 229 229 229 229 229 228 228 228 227 225
304 304 304 304 304 305 306 307 308 308 308 309 309 310 310 310 309 310 311 312 312 312 311 311 311 312 311 311 310 310 309 307 307 309 308 304 302 300 300 299 300 301 305 310 313 314 313 313 313 312 310 308 307 305 303 300 297 292 285 277 269 261 255 248 242 237 232 226 221 219 219 221 223 225 227 227 227 228 228 228 227 227 227 226 225
304 304 304 305 305 306 307 308 309 309 309 310 311 310 310 310 311 312 313 314 313 313 314 314 314 314 313 314 314 312 308 307 308 309 306 303 300 299 300 302 305 308 314 317 319 318 317 317 316 315 314 314 314 312 311 308 306 301 291 279 269 261 255 247 240 234 229 223 218 215 215 217 220 222 224 226 226 227 227 226 226 227 227 226 225
304 304 305 305 306 307 308 309 310 310 310 310 310 310 311 313 314 314 315 315 315 315 316 316 316 316 316 318 319 314 308 308 309 308 304 301 299 301 305 310 312 315 318 320 320 320 319 318 318 318 318 319 320 320 318 316 314 309 296 278 262 254 248 241 234 228 221 217 214 212 211 213 215 218 221 222 223 224 225 225 225 226 226 225 224
305 305 306 306 307 308 309 310 310 310 310 310 311 313 314 315 316 316 317 317 317 318 318 318 318 318 319 322 322 315 309 310 311 309 304 301 301 304 310 314 315 316 318 320 321 320 319 319 321 321 322 326 328 327 326 327 329 328 316 296 273 253 244 236 230 224 216 209 208 208 208 210 213 217 219 220 220 222 223 223 224 224 224 223 223
306 306 307 308 309 310 311 311 311 311 311 312 314 316 316 317 318 318 319 319 319 320 320 320 320 321 322 324 323 319 314 314 314 310 306 305 304 307 314 316 316 316 319 320 321 319 319 321 323 324 329 337 339 337 341 345 345 344 337 310 252 224 220 216 215 214 208 201 200 203 205 208 213 216 218 219 219 219 219 220 221 222 222 222 221
307 308 308 309 310 311 311 311 312 313 314 316 317 318 318 319 320 321 321 321 321 322 322 323 323 323 324 326 326 324 322 323 321 316 311 310 309 310 316 318 317 318 319 320 322 322 322 323 327 332 343 351 350 350 358 359 350 358 20 25 303 224 206 196 193 196 194 190 191 197 202 207 212 216 217 219 219 218 218 218 218 219 220 220 219
309 310 310 311 312 312 312 313 314 316 317 319 319 320 320 322 323 323 323 323 324 324 325 325 326 327 329 331 332 333 334 338 336 328 319 314 312 313 317 319 319 319 320 321 324 326 325 326 334 350 7 16 14 12 19 21 21 39 59 64 64 163 190 184 180 181 182 182 184 191 199 205 211 216 218 219 220 219 218 217 216 216 217 217 217
310 311 311 311 312 313 314 315 317 319 320 321 321 322 323 324 325 325 325 325 325 325 327 329 331 332 336 339 343 348 353 354 349 339 328 319 315 317 322 323 322 321 320 322 326 328 329 334 357 31 51 57 55 54 58 59 61 75 87 87 84 98 155 177 174 172 175 179 183 189 195 202 210 215 217 218 219 218 218 216 214 214 214 215 216
311 312 312 312 314 315 316 318 320 320 321 322 323 324 325 326 327 328 328 327 326 328 331 334 336 338 344 350 357 6 8 1 352 343 332 322 321 325 327 326 324 322 321 325 329 331 335 1 52 68 74 76 72 70 73 74 73 78 82 80 79 99 154 170 169 168 172 179 188 192 192 197 208 213 213 214 217 217 214 212 211 212 213 214 216
312 312 312 314 316 318 319 321 321 322 324 325 325 326 327 327 329 330 329 327 327 330 334 338 342 346 353 5 12 13 8 359 353 349 345 339 336 332 327 323 319 318 320 326 334 340 12 83 83 76 73 70 66 67 72 73 69 65 66 69 82 135 161 166 169 171 172 180 193 197 192 192 203 211 209 209 212 213 211 210 210 210 212 213 213
312 313 314 317 319 320 322 323 324 325 326 327 326 327 328 329 331 332 329 327 329 332 337 344 352 356 3 15 17 9 3 5 8 9 359 344 333 324 318 315 313 314 320 331 348 54 107 100 87 78 73 68 64 65 68 69 68 67 66 65 69 100 137 151 154 160 172 187 203 205 199 196 201 207 207 206 209 210 211 211 210 210 210 211 212
313 315 317 319 321 323 324 325 326 327 328 328 328 328 329 331 332 331 328 327 331 335 340 350 359 1 8 17 15 11 17 29 27 10 348 333 326 323 322 321 320 323 335 4 88 115 112 102 94 90 86 79 73 70 69 69 73 81 85 85 84 87 117 148 150 151 171 196 204 204 203 204 205 205 204 204 206 208 209 210 209 209 209 210 210
315 317 320 322 323 324 326 327 329 330 330 330 330 330 331 332 332 329 326 328 333 337 344 355 2 1 9 20 25 35 44 39 17 358 346 342 343 345 346 345 345 357 35 96 117 118 112 108 106 101 91 81 74 71 69 70 73 76 84 107 122 124 141 161 159 159 176 192 197 200 206 209 209 205 203 203 205 205 205 206 206 207 208 210 210
318 320 322 324 325 327 329 330 331 331 332 332 331 331 331 332 331 327 326 329 333 338 346 3 9 2 15 36 57 62 52 29 12 12 15 16 16 19 19 19 27 55 92 111 116 116 114 114 105 86 70 67 66 61 53 49 49 50 50 63 177 182 190 192 182 179 184 189 191 199 209 211 209 206 205 205 205 203 202 203 203 204 206 209 210
321 323 324 326 328 330 331 332 332 333 333 333 332 331 331 331 329 326 326 329 334 339 352 26 24 0 36 79 86 73 52 35 39 46 43 37 34 34 37 42 59 86 104 111 111 109 103 92 77 68 65 67 64 53 42 42 51 61 66 70 86 133 174 197 203 201 197 194 195 201 208 211 211 209 207 205 203 200 199 200 203 205 206 208 209
323 324 325 328 331 332 333 333 334 334 334 333 332 331 331 330 328 326 326 330 336 343 7 126 208 339 104 108 98 81 67 71 72 66 56 47 42 41 47 62 79 94 103 105 103 94 79 66 61 64 70 70 59 44 51 66 74 75 71 70 75 92 114 133 162 193 203 205 207 208 212 216 215 212 207 204 201 199 197 197 198 201 202 200 200
324 325 328 331 333 334 334 335 335 335 335 334 332 331 331 329 328 326 326 330 337 346 134 167 194 183 138 121 108 100 106 101 87 76 69 62 54 49 55 71 88 99 106 108 101 87 71 64 65 69 74 78 78 78 80 80 77 70 64 61 61 73 98 109 108 117 163 196 207 210 212 211 202 194 194 195 192 188 184 182 183 187 187 183 183
325 328 331 334 335 335 335 336 336 337 336 335 333 331 330 329 327 324 324 328 335 342 166 177 194 180 150 130 120 125 128 115 100 91 85 78 70 65 68 76 84 91 98 102 98 87 78 75 76 77 80 90 97 96 90 82 74 68 65 61 55 60 79 93 92 88 94 122 157 175 183 183 176 174 179 183 182 178 174 171 171 176 179 178 178
Height
10924 10923 10922 10922 10921 10920 10920 10919 10918 10918 10918 10917 10917 10917 10916 10916 10915 10915 10914 10913 10913 10912 10911 10910 10910 10909 10908 10907 10907 10906 10905 10905 10904 10903 10902 10902 10901 10901 10901 10901 10901 10901 10901 10901 10902 10903 10903 10903 10904 10905 10907 10908 10909 10911 10913 10915 10917 10918 10920 10922 10924 10926 10928 10929 10931 10932 10935 10936 10938 10939 10941 10942 10942 10943 10945 10948 10950 10951 10952 10953 10955 10957 10958 10959 10960
10920 10920 10919 10918 10918 10917 10916 10915 10915 10914 10913 10913 10913 10912 10912 10911 10911 10910 10909 10908 10907 10906 10905 10905 10904 10903 10902 10902 10901 10900 10899 10898 10897 10896 10895 10894 10894 10893 10893 10893 10893 10893 10893 10893 10894 10894 10894 10895 10895 10896 10898 10899 10900 10901 10902 10905 10907 10909 10911 10913 10915 10917 10919 10921 10922 10924 10926 10929 10931 10932 10934 10935 10937 10938 10940 10942 10944 10945 10947 10948 10949 10951 10953 10954 10955
10917 10916 10915 10915 10914 10913 10912 10911 10911 10910 10909 10909 10908 10908 10907 10907 10906 10905 10903 10902 10901 10900 10899 10898 10897 10896 10896 10895 10894 10893 10892 10890 10889 10888 10888 10887 10886 10885 10885 10884 10884 10884 10883 10884 10885 10885 10885 10885 10886 10887 10889 10890 10890 10891 10892 10894 10897 10899 10901 10903 10905 10908 10909 10911 10913 10915 10917 10921 10923 10925 10927 10929 10930 10932 10934 10936 10938 10940 10941 10942 10944 10946 10947 10948 10949
10913 10912 10912 10911 10910 10909 10908 10907 10906 10906 10905 10904 10904 10903 10902 10901 10900 10899 10897 10896 10895 10894 10892 10891 10890 10889 10888 10887 10886 10885 10884 10882 10881 10880 10879 10878 10877 10876 10876 10875 10874 10874 10874 10874 10875 10876 10876 10876 10876 10877 10879 10880 10881 10881 10883 10884 10886 10888 10891 10893 10895 10897 10900 10901 10903 10906 10909 10912 10915 10918 10920 10921 10923 10925 10927 10929 10931 10933 10935 10936 10938 10940 10942 10943 10944
10909 10908 10908 10907 10906 10905 10904 10903 10902 10901 10900 10899 10899 10898 10896 10895 10894 10892 10891 10889 10888 10887 10886 10884 10883 10881 10880 10879 10878 10876 10875 10874 10873 10871 10870 10869 10868 10867 10866 10865 10864 10863 10863 10863 10864 10865 10865 10865 10865 10866 10868 10870 10870 10871 10873 10874 10875 10877 10879 10882 10884 10887 10890 10892 10893 10896 10899 10902 10906 10910 10912 10913 10915 10917 10920 10922 10924 10927 10929 10930 10932 10935 10936 10938 10939
10905 10904 10903 10902 10901 10900 10899 10898 10897 10896 10895 10894 10893 10891 10890 10889 10888 10886 10884 10883 10881 10880 10879 10877 10875 10874 10872 10871 10869 10867 10866 10865 10864 10862 10860 10859 10858 10857 10855 10854 10854 10853 10853 10852 10852 10853 10854 10854 10854 10855 10856 10858 10859 10860 10862 10863 10865 10866 10868 10871 10873 10876 10879 10881 10883 10885 10888 10892 10896 10900 10903 10905 10907 10909 10912 10915 10917 10920 10922 10924 10926 10929 10932 10934 10935
10901 10900 10899 10897 10896 10895 10894 10893 10892 10890 10889 10888 10886 10885 10883 10882 10881 10879 10878 10876 10874 10873 10871 10869 10867 10866 10864 10863 10861 10859 10857 10856 10854 10852 10851 10849 10848 10846 10845 10844 10843 10842 10841 10841 10841 10841 10842 10842 10843 10844 10845 10846 10847 10848 10850 10852 10853 10855 10857 10860 10862 10865 10867 10870 10872 10874 10878 10882 10885 10889 10892 10896 10899 10900 10903 10907 10910 10911 10914 10917 10920 10923 10926 10929 10930
10897 10895 10893 10892 10891 10889 10888 10887 10885 10884 10883 10881 10879 10878 10876 10875 10874 10873 10871 10869 10867 10865 10864 10862 10860 10858 10856 10854 10852 10850 10849 10847 10845 10843 10841 10839 10838 10836 10834 10833 10832 10831 10830 10829 10830 10830 10830 10830 10831 10832 10833 10834 10835 10836 10837 10840 10842 10844 10846 10848 10851 10853 10856 10858 10861 10864 10867 10871 10874 10878 10881 10886 10889 10891 10894 10898 10901 10902 10906 10910 10914 10916 10919 10923 10926
10891 10889 10888 10886 10884 10883 10882 10880 10879 10877 10876 10874 10872 10871 10869 10868 10867 10865 10864 10862 10860 10858 10856 10854 10852 10850 10848 10846 10844 10842 10840 10838 10836 10834 10832 10830 10829 10826 10825 10823 10821 10820 10819 10818 10818 10818 10818 10819 10819 10820 10821 10822 10823 10823 10825 10827 10830 10832 10834 10837 10839 10841 10844 10847 10850 10852 10855 10859 10862 10866 10871 10875 10878 10882 10885 10888 10891 10894 10898 10903 10906 10908 10912 10917 10919
10885 10883 10881 10880 10878 10877 10876 10874 10872 10871 10869 10867 10865 10864 10862 10861 10859 10858 10856 10854 10852 10850 10848 10846 10844 10842 10840 10837 10835 10833 10832 10830 10828 10825 10823 10822 10820 10818 10816 10814 10812 10810 10809 10808 10807 10807 10807 10807 10808 10809 10809 10810 10811 10812 10812 10815 10817 10819 10822 10825 10827 10829 10832 10835 10838 10840 10843 10846 10849 10854 10860 10864 10867 10871 10875 10879 10882 10886 10891 10895 10897 10901 10906 10908 10908
10879 10877 10875 10874 10872 10871 10869 10868 10866 10864 10862 10860 10858 10857 10855 10853 10852 10850 10848 10846 10844 10842 10840 10837 10835 10833 10831 10828 10826 10824 10823 10821 10819 10816 10814 10813 10811 10809 10807 10804 10802 10801 10799 10798 10796 10796 10796 10796 10797 10798 10798 10798 10799 10801 10801 10803 10805 10807 10809 10812 10814 10817 10820 10822 10825 10827 10830 10833 10837 10842 10848 10851 10854 10858 10864 10869 10873 10877 10882 10886 10889 10893 10897 10898 10898
10873 10871 10869 10868 10866 10865 10863 10861 10859 10857 10855 10854 10852 10850 10848 10846 10844 10842 10840 10838 10836 10833 10831 10828 10826 10824 10822 10819 10816 10814 10812 10811 10809 10807 10805 10803 10801 10799 10797 10795 10793 10791 10789 10787 10786 10785 10785 10785 10785 10786 10787 10787 10788 10790 10790 10792 10793 10795 10796 10799 10802 10804 10806 10809 10812 10814 10817 10820 10824 10829 10834 10837 10841 10846 10852 10857 10864 10869 10873 10877 10880 10884 10888 10890 10890
10866 10865 10863 10862 10860 10858 10857 10855 10853 10851 10849 10848 10846 10844 10841 10839 10837 10834 10831 10829 10827 10824 10821 10819 10817 10814 10812 10810 10807 10804 10802 10800 10799 10798 10796 10794 10792 10790 10787 10784 10783 10781 10779 10777 10776 10775 10774 10774 10774 10774 10774 10776 10777 10778 10779 10781 10782 10783 10785 10787 10789 10790 10793 10796 10798 10801 10803 10807 10811 10815 10819 10824 10828 10833 10838 10845 10853 10859 10863 10866 10871 10875 10879 10881 10882
10860 10859 10857 10855 10854 10852 10850 10848 10846 10844 10843 10841 10839 10836 10834 10831 10829 10826 10823 10820 10818 10815 10812 10810 10807 10805 10802 10800 10797 10794 10791 10790 10789 10788 10786 10783 10782 10780 10777 10774 10773 10771 10768 10766 10765 10764 10763 10762 10762 10762 10762 10763 10764 10766 10768 10770 10771 10772 10774 10776 10776 10777 10780 10783 10785 10787 10790 10793 10798 10801 10804 10810 10815 10820 10826 10834 10841 10847 10852 10857 10862 10867 10869 10871 10873
10854 10853 10851 10849 10847 10845 10842 10841 10839 10837 10835 10833 10831 10829 10826 10824 10821 10819 10816 10812 10809 10806 10803 10800 10797 10794 10792 10790 10787 10784 10781 10780 10778 10777 10775 10773 10771 10768 10766 10763 10761 10759 10757 10755 10754 10753 10752 10752 10751 10750 10750 10751 10752 10754 10756 10758 10759 10761 10763 10763 10763 10765 10769 10770 10772 10775 10777 10781 10785 10787 10791 10796 10802 10807 10813 10821 10828 10833 10840 10847 10853 10857 10860 10863 10865
10848 10846 10844 10842 10840 10838 10836 10834 10832 10830 10828 10825 10823 10821 10819 10816 10813 10811 10808 10804 10801 10797 10794 10791 10787 10784 10781 10779 10777 10774 10771 10768 10767 10765 10763 10761 10759 10757 10754 10752 10749 10747 10745 10744 10743 10742 10741 10740 10739 10739 10739 10739 10740 10742 10744 10746 10747 10749 10750 10751 10752 10754 10757 10759 10761 10763 10765 10769 10772 10775 10778 10783 10788 10793 10799 10807 10815 10820 10827 10837 10842 10846 10850 10853 10856
10842 10840 10838 10836 10834 10832 10830 10828 10826 10823 10821 10818 10816 10813 10811 10808 10805 10802 10799 10795 10791 10787 10784 10781 10777 10774 10771 10769 10766 10764 10760 10757 10756 10754 10752 10750 10748 10745 10743 10741 10739 10736 10734 10732 10731 10731 10730 10728 10727 10727 10728 10727 10728 10730 10732 10733 10735 10736 10737 10738 10739 10742 10744 10746 10749 10751 10753 10756 10760 10763 10765 10769 10774 10780 10786 10793 10801 10807 10815 10824 10829 10833 10840 10845 10848
10836 10834 10832 10829 10828 10826 10824 10822 10819 10816 10813 10811 10808 10805 10802 10799 10796 10793 10789 10786 10781 10777 10774 10771 10767 10764 10762 10759 10756 10753 10750 10746 10744 10743 10741 10739 10737 10734 10731 10729 10727 10725 10723 10722 10720 10719 10719 10717 10716 10716 10717 10716 10717 10719 10720 10721 10722 10723 10725 10726 10728 10730 10731 10732 10736 10739 10740 10744 10747 10750 10753 10756 10760 10766 10772 10779 10787 10794 10802 10810 10815 10822 10831 10836 10839
10830 10828 10826 10824 10822 10820 10818 10815 10812 10809 10806 10803 10800 10797 10794 10791 10787 10784 10780 10776 10773 10769 10765 10762 10758 10753 10751 10748 10745 10742 10739 10735 10733 10731 10730 10728 10726 10723 10720 10718 10716 10714 10712 10710 10709 10708 10707 10706 10705 10705 10706 10706 10706 10706 10708 10710 10710 10711 10712 10714 10716 10717 10717 10718 10723 10726 10729 10732 10736 10738 10741 10745 10749 10753 10759 10766 10773 10781 10789 10795 10802 10811 10820 10826 10828
10824 10822 10820 10818 10816 10814 10811 10808 10805 10802 10799 10796 10792 10789 10786 10783 10779 10775 10771 10768 10764 10760 10756 10752 10748 10743 10739 10736 10734 10731 10729 10725 10722 10719 10718 10717 10715 10713 10709 10707 10705 10703 10701 10699 10698 10697 10696 10694 10694 10695 10695 10695 10694 10694 10696 10698 10699 10699 10701 10703 10704 10704 10705 10708 10712 10715 10718 10721 10725 10728 10730 10733 10737 10741 10746 10753 10760 10768 10774 10781 10789 10799 10808 10814 10817
10818 10816 10814 10812 10810 10807 10804 10802 10798 10795 10792 10789 10785 10782 10778 10774 10771 10767 10763 10759 10754 10750 10745 10742 10738 10733 10729 10725 10723 10720 10718 10715 10712 10709 10706 10705 10704 10702 10699 10696 10695 10693 10691 10689 10688 10686 10685 10683 10683 10683 10684 10684 10683 10683 10684 10686 10688 10689 10690 10691 10691 10691 10694 10698 10701 10703 10707 10710 10713 10717 10719 10721 10725 10729 10734 10741 10747 10754 10761 10768 10776 10785 10795 10802 10806
10812 10810 10808 10806 10803 10801 10798 10795 10791 10788 10785 10781 10778 10774 10770 10766 10762 10759 10755 10751 10746 10741 10736 10732 10728 10724 10719 10715 10712 10710 10707 10705 10702 10699 10696 10694 10693 10691 10689 10686 10684 10683 10681 10679 10677 10675 10673 10672 10671 10672 10672 10672 10672 10673 10674 10675 10678 10679 10679 10679 10680 10681 10683 10688 10690 10692 10695 10698 10701 10705 10707 10710 10713 10717 10722 10728 10734 10740 10748 10755 10763 10773 10782 10789 10793
10806 10804 10802 10799 10796 10793 10790 10787 10784 10781 10777 10774 10770 10766 10762 10758 10753 10750 10746 10742 10737 10732 10727 10722 10718 10714 10709 10705 10702 10699 10697 10694 10692 10689 10686 10684 10682 10680 10678 10675 10673 10671 10669 10667 10665 10663 10661 10660 10660 10659 10660 10661 10661 10662 10663 10664 10665 10666 10666 10667 10668 10670 10672 10676 10679 10681 10683 10685 10689 10693 10696 10699 10702 10706 10710 10715 10721 10729 10736 10744 10752 10761 10768 10774 10780
10800 10798 10795 10792 10789 10786 10782 10779 10776 10773 10769 10766 10762 10758 10754 10749 10745 10741 10737 10733 10728 10724 10718 10713 10709 10705 10700 10695 10691 10689 10686 10684 10682 10679 10677 10674 10672 10670 10667 10664 10662 10659 10657 10655 10652 10650 10649 10648 10648 10648 10648 10649 10650 10649 10650 10651 10652 10653 10653 10654 10656 10658 10661 10664 10666 10667 10670 10674 10678 10682 10685 10688 10690 10694 10698 10704 10710 10718 10725 10733 10741 10747 10754 10761 10768
10794 10791 10788 10785 10781 10778 10775 10772 10768 10765 10761 10758 10754 10751 10746 10741 10736 10731 10727 10723 10719 10714 10709 10704 10699 10695 10690 10685 10681 10678 10676 10674 10671 10669 10666 10664 10662 10659 10656 10653 10650 10648 10645 10643 10640 10638 10637 10636 10636 10636 10636 10637 10637 10637 10637 10638 10638 10639 10640 10641 10643 10646 10648 10651 10653 10655 10658 10663 10667 10671 10674 10675 10678 10683 10687 10693 10700 10707 10715 10721 10728 10734 10742 10749 10756
10787 10784 10781 10777 10774 10771 10768 10764 10761 10757 10753 10749 10746 10742 10738 10733 10727 10722 10717 10713 10708 10703 10699 10695 10691 10686 10681 10677 10672 10668 10665 10663 10662 10660 10656 10653 10651 10648 10644 10640 10638 10636 10634 10632 10629 10627 10625 10625 10625 10626 10626 10626 10625 10625 10624 10624 10625 10626 10627 10629 10631 10633 10635 10638 10640 10644 10648 10651 10655 10658 10661 10663 10667 10673 10678 10684 10691 10697 10703 10709 10716 10723 10731 10737 10744
10780 10777 10774 10770 10767 10764 10761 10757 10753 10749 10744 10740 10736 10732 10728 10723 10718 10713 10709 10704 10699 10694 10690 10686 10682 10678 10673 10668 10664 10659 10655 10653 10652 10650 10647 10643 10640 10637 10633 10630 10627 10625 10623 10622 10620 10618 10616 10616 10616 10616 10616 10615 10614 10613 10613 10613 10614 10614 10615 10617 10619 10620 10622 10624 10628 10632 10636 10640 10643 10646 10649 10653 10658 10664 10670 10675 10682 10688 10693 10698 10706 10714 10720 10726 10734
10774 10770 10767 10764 10761 10758 10754 10749 10745 10740 10735 10731 10727 10723 10718 10713 10708 10704 10701 10697 10692 10687 10682 10677 10674 10670 10665 10661 10656 10651 10646 10643 10642 10641 10637 10633 10629 10625 10623 10620 10618 10615 10614 10613 10611 10610 10609 10609 10609 10607 10606 10606 10605 10604 10604 10604 10604 10604 10605 10606 10607 10608 10609 10611 10615 10620 10624 10628 10632 10635 10639 10644 10649 10655 10661 10667 10673 10678 10683 10689 10697 10704 10710 10717 10725
10767 10764 10760 10757 10754 10750 10746 10741 10737 10732 10727 10722 10717 10713 10709 10705 10699 10694 10691 10689 10686 10681 10676 10671 10666 10661 10657 10652 10648 10643 10637 10633 10631 10630 10627 10623 10619 10616 10614 10612 10610 10608 10606 10605 10603 10602 10603 10602 10601 10599 10598 10597 10595 10595 10595 10595 10594 10594 10594 10595 10596 10596 10597 10599 10603 10607 10611 10616 10621 10626 10630 10636 10641 10647 10653 10659 10665 10669 10675 10681 10688 10695 10701 10709 10717
10760 10757 10754 10751 10747 10742 10738 10733 10728 10724 10719 10714 10708 10703 10699 10696 10693 10687 10682 10680 10678 10675 10670 10666 10660 10654 10648 10643 10638 10634 10630 10625 10622 10619 10617 10614 10611 10608 10606 10605 10603 10601 10599 10598 10597 10597 10596 10595 10593 10592 10590 10588 10586 10586 10586 10586 10585 10584 10584 10585 10585 10586 10587 10589 10592 10596 10600 10605 10611 10617 10622 10628 10634 10640 10646 10652 10656 10661 10667 10674 10680 10686 10693 10700 10706
10754 10751 10748 10744 10739 10734 10730 10725 10721 10716 10712 10707 10702 10695 10690 10686 10684 10681 10676 10671 10668 10665 10662 10658 10653 10648 10642 10635 10630 10625 10622 10618 10614 10612 10609 10606 10604 10602 10600 10598 10597 10596 10594 10593 10593 10592 10590 10589 10588 10586 10584 10582 10580 10579 10578 10578 10577 10577 10576 10576 10577 10577 10578 10580 10582 10586 10591 10597 10603 10609 10615 10621 10627 10633 10638 10644 10649 10653 10660 10667 10672 10677 10684 10691 10697
10747 10744 10740 10736 10732 10727 10722 10717 10713 10709 10704 10699 10694 10690 10685 10679 10675 10672 10669 10665 10661 10656 10652 10647 10643 10638 10634 10628 10623 10618 10613 10610 10607 10605 10603 10600 10598 10596 10595 10594 10593 10592 10591 10589 10589 10588 10586 10584 10583 10581 10578 10576 10575 10573 10572 10571 10570 10570 10569 10569 10570 10570 10570 10572 10574 10578 10582 10587 10593 10600 10607 10613 10620 10626 10631 10637 10642 10647 10653 10659 10664 10669 10675 10682 10688
10741 10737 10733 10728 10724 10719 10714 10710 10706 10702 10697 10692 10687 10683 10680 10675 10670 10664 10660 10657 10653 10649 10644 10639 10634 10630 10625 10621 10616 10612 10607 10603 10601 10599 10597 10595 10593 10592 10591 10590 10589 10588 10587 10587 10585 10584 10582 10580 10578 10576 10574 10572 10570 10568 10567 10565 10565 10564 10564 10563 10564 10564 10565 10566 10569 10571 10574 10580 10587 10593 10600 10607 10614 10620 10625 10630 10635 10641 10647 10653 10658 10662 10668 10674 10680
10733 10729 10725 10721 10716 10711 10707 10703 10699 10695 10690 10686 10681 10677 10674 10670 10665 10660 10654 10649 10644 10640 10636 10632 10627 10623 10619 10614 10610 10607 10602 10599 10596 10594 10593 10592 10591 10590 10589 10588 10587 10585 10584 10583 10582 10580 10578 10576 10574 10572 10570 10568 10566 10564 10562 10561 10560 10559 10558 10558 10558 10559 10561 10563 10565 10567 10571 10576 10582 10588 10595 10602 10608 10615 10621 10625 10630 10635 10641 10646 10652 10656 10661 10667 10673
10726 10722 10718 10714 10709 10705 10701 10697 10693 10688 10684 10680 10676 10672 10668 10664 10659 10655 10650 10644 10638 10632 10627 10623 10620 10616 10613 10609 10605 10602 10598 10595 10592 10591 10590 10589 10588 10587 10587 10586 10585 10583 10582 10581 10580 10578 10576 10573 10571 10569 10566 10564 10563 10560 10559 10557 10556 10555 10554 10553 10553 10555 10557 10559 10562 10564 10567 10571 10577 10582 10589 10596 10604 10611 10616 10621 10625 10630 10635 10640 10646 10651 10656 10661 10668
10720 10716 10712 10707 10703 10699 10695 10691 10687 10683 10678 10674 10671 10667 10663 10658 10653 10648 10643 10638 10633 10627 10622 10617 10613 10609 10607 10604 10601 10597 10594 10591 10589 10588 10587 10586 10586 10585 10584 10583 10582 10581 10580 10579 10578 10576 10574 10571 10569 10566 10564 10562 10560 10558 10556 10555 10554 10553 10551 10550 10549 10551 10554 10556 10558 10560 10562 10567 10573 10580 10586 10593 10599 10605 10610 10615 10620 10625 10630 10635 10641 10646 10651 10657 10663
10713 10710 10705 10701 10697 10693 10690 10686 10682 10678 10674 10670 10666 10661 10657 10652 10647 10642 10637 10632 10627 10622 10617 10612 10608 10604 10601 10600 10598 10594 10590 10588 10587 10586 10585 10584 10584 10583 10582 10582 10581 10580 10579 10578 10576 10574 10571 10569 10567 10564 10562 10560 10558 10557 10555 10554 10553 10552 10551 10549 10549 10551 10554 10556 10558 10560 10562 10566 10573 10580 10586 10592 10597 10602 10606 10611 10615 10621 10626 10631 10636 10641 10646 10651 10658
10708 10704 10699 10696 10692 10688 10685 10681 10677 10673 10669 10664 10660 10655 10651 10646 10641 10636 10631 10626 10621 10617 10612 10608 10604 10600 10597 10595 10593 10591 10588 10586 10585 10584 10583 10583 10582 10581 10581 10580 10580 10579 10578 10576 10574 10572 10570 10567 10565 10563 10561 10559 10558 10556 10555 10553 10552 10550 10549 10549 10549 10551 10553 10555 10557 10560 10564 10568 10575 10582 10587 10592 10597 10601 10605 10609 10613 10617 10621 10626 10632 10637 10642 10647 10653
10702 10698 10694 10690 10687 10683 10680 10676 10672 10668 10663 10659 10654 10650 10645 10640 10635 10630 10625 10621 10616 10612 10608 10605 10601 10598 10594 10592 10590 10588 10586 10585 10584 10583 10582 10582 10581 10580 10580 10579 10579 10578 10576 10575 10573 10570 10568 10566 10564 10562 10560 10559 10558 10556 10555 10553 10551 10549 10548 10549 10550 10551 10553 10554 10556 10560 10565 10569 10575 10582 10587 10592 10596 10600 10604 10607 10611 10615 10618 10623 10628 10633 10639 10644 10649
10696 10692 10689 10686 10682 10679 10675 10671 10667 10662 10658 10653 10649 10644 10639 10634 10630 10625 10620 10616 10612 10608 10605 10601 10598 10595 10592 10590 10588 10586 10585 10584 10583 10583 10582 10581 10580 10580 10579 10578 10578 10576 10575 10573 10571 10569 10567 10566 10564 10562 10561 10559 10558 10557 10556 10554 10553 10551 10551 10552 10554 10556 10557 10558 10559 10563 10567 10570 10575 10581 10586 10591 10595 10599 10602 10606 10611 10614 10618 10621 10625 10631 10636 10641 10647
10691 10688 10684 10681 10678 10675 10671 10666 10662 10657 10653 10648 10643 10638 10634 10629 10625 10620 10616 10612 10608 10605 10602 10599 10595 10593 10590 10588 10587 10585 10584 10584 10583 10583 10582 10581 10581 10580 10579 10578 10577 10575 10573 10572 10570 10568 10567 10565 10564 10563 10561 10560 10559 10558 10557 10556 10556 10554 10554 10554 10556 10559 10562 10563 10564 10566 10568 10571 10575 10580 10584 10588 10593 10596 10600 10605 10610 10613 10616 10620 10624 10629 10634 10639 10644
10687 10684 10680 10677 10674 10670 10666 10662 10657 10652 10648 10643 10638 10634 10629 10625 10621 10617 10612 10608 10605 10602 10599 10597 10594 10591 10590 10588 10587 10586 10585 10584 10584 10583 10582 10581 10581 10580 10579 10577 10575 10574 10572 10570 10569 10568 10567 10566 10565 10564 10563 10562 10561 10560 10558 10558 10558 10557 10555 10555 10558 10562 10566 10567 10567 10568 10570 10573 10577 10579 10582 10586 10591 10596 10600 10604 10608 10611 10614 10618 10623 10627 10631 10636 10640
10683 10680 10676 10673 10669 10666 10661 10657 10652 10648 10643 10639 10634 10629 10625 10621 10617 10613 10609 10606 10602 10600 10598 10595 10593 10591 10590 10589 10587 10587 10586 10585 10584 10583 10582 10582 10581 10579 10578 10576 10574 10572 10570 10569 10568 10567 10567 10566 10566 10565 10565 10564 10563 10562 10561 10561 10561 10560 10559 10560 10563 10565 10567 10568 10569 10570 10572 10575 10578 10579 10580 10583 10589 10594 10598 10601 10604 10608 10611 10615 10619 10624 10628 10632 10636
10679 10676 10672 10669 10665 10661 10657 10652 10648 10643 10639 10634 10630 10625 10621 10617 10613 10610 10607 10604 10601 10599 10597 10595 10593 10592 10590 10589 10588 10587 10586 10585 10585 10584 10583 10582 10581 10579 10577 10575 10572 10570 10569 10568 10568 10568 10568 10568 10568 10568 10567 10567 10566 10565 10564 10564 10565 10565 10565 10566 10567 10568 10569 10570 10571 10573 10575 10578 10580 10581 10582 10584 10587 10591 10595 10599 10602 10606 10609 10613 10617 10621 10625 10629 10633
10675 10672 10669 10665 10661 10657 10652 10648 10643 10639 10635 10630 10626 10621 10617 10614 10611 10608 10604 10602 10600 10598 10596 10594 10593 10592 10591 10590 10589 10588 10588 10587 10586 10585 10584 10583 10580 10578 10576 10573 10571 10569 10568 10567 10568 10569 10570 10570 10571 10571 10570 10569 10568 10568 10567 10567 10568 10568 10569 10570 10570 10571 10571 10572 10572 10575 10578 10579 10580 10581 10583 10585 10587 10590 10594 10598 10601 10605 10608 10612 10615 10619 10623 10627 10630
10672 10668 10664 10661 10657 10653 10648 10644 10639 10635 10631 10626 10622 10618 10614 10611 10608 10605 10602 10600 10599 10597 10596 10594 10594 10593 10592 10591 10590 10590 10589 10589 10588 10587 10585 10583 10581 10578 10575 10573 10570 10569 10568 10568 10569 10571 10572 10573 10573 10573 10572 10571 10571 10570 10570 10570 10571 10571 10571 10572 10572 10572 10572 10573 10574 10576 10577 10578 10579 10580 10582 10585 10587 10590 10594 10597 10600 10604 10607 10611 10614 10618 10621 10624 10628
10668 10664 10661 10657 10653 10649 10645 10640 10636 10632 10627 10623 10618 10614 10611 10608 10606 10603 10601 10599 10598 10597 10595 10595 10594 10593 10592 10591 10591 10591 10591 10591 10590 10588 10587 10585 10582 10579 10577 10574 10572 10571 10570 10571 10573 10574 10575 10576 10576 10575 10574 10573 10573 10572 10572 10572 10573 10573 10573 10573 10573 10572 10572 10573 10575 10576 10576 10577 10578 10580 10582 10584 10587 10590 10594 10597 10600 10603 10606 10610 10613 10616 10620 10623 10627
10664 10660 10657 10654 10650 10646 10641 10637 10633 10629 10624 10620 10616 10612 10609 10606 10604 10602 10600 10598 10597 10596 10595 10595 10594 10594 10593 10592 10593 10593 10593 10592 10592 10590 10589 10587 10584 10582 10580 10577 10576 10575 10575 10576 10578 10578 10579 10579 10579 10578 10576 10575 10575 10574 10574 10574 10574 10574 10573 10573 10572 10572 10572 10573 10574 10575 10576 10577 10578 10580 10582 10584 10587 10590 10593 10597 10600 10603 10606 10609 10613 10616 10620 10624 10628
10660 10657 10654 10650 10647 10642 10638 10634 10630 10626 10622 10617 10613 10610 10607 10605 10602 10600 10598 10597 10596 10595 10594 10595 10595 10594 10593 10593 10594 10594 10594 10594 10593 10592 10591 10589 10588 10586 10584 10582 10581 10581 10581 10582 10582 10582 10582 10582 10581 10580 10579 10578 10578 10578 10577 10576 10576 10575 10575 10574 10573 10573 10572 10573 10574 10575 10576 10577 10579 10581 10583 10585 10587 10590 10593 10596 10599 10603 10606 10609 10613 10617 10621 10625 10629
10657 10654 10651 10647 10643 10639 10635 10631 10627 10623 10619 10615 10611 10608 10605 10603 10601 10599 10597 10596 10595 10594 10594 10594 10595 10594 10594 10594 10595 10595 10595 10595 10595 10594 10593 10592 10591 10589 10588 10587 10586 10586 10586 10586 10585 10585 10585 10584 10583 10582 10582 10582 10582 10581 10580 10579 10578 10578 10577 10577 10577 10575 10574 10574 10575 10575 10576 10577 10579 10581 10583 10586 10588 10590 10593 10596 10599 10602 10605 10609 10613 10617 10621 10624 10628
10654 10651 10647 10644 10640 10637 10633 10629 10625 10620 10616 10612 10609 10605 10603 10601 10599 10597 10596 10595 10594 10594 10594 10594 10594 10595 10595 10595 10595 10596 10596 10596 10596 10596 10595 10594 10593 10592 10592 10591 10591 10590 10590 10589 10589 10588 10588 10587 10586 10585 10585 10585 10585 10585 10584 10582 10581 10581 10581 10581 10581 10579 10577 10576 10576 10577 10577 10578 10579 10581 10583 10586 10588 10590 10592 10595 10598 10601 10604 10608 10613 10617 10620 10624 10627